Location: Baix
(44.7118°N, 4.7648°E)
Time: 19:20:23
(UTC+00:00)

USA 267 - Pass Details

Date: 07 August 2020
Orbit: 1101 x 1106 km, 123.0° (Epoch: 22 September)

Event Time Altitude Azimuth Distance (km) Brightness Sun altitude
Rises 03:55:42 0° 152° (SSE) 3,903 6.1 -6.9°
Reaches altitude 10° 03:58:20 10° 159° (SSE) 2,949 5.4 -6.5°
Maximum altitude 04:04:27 42° 229° (SW) 1,513 3.6 -5.6°
Drops below altitude 10° 04:10:37 10° 299° (WNW) 2,966 5.2 -4.6°
Sets 04:13:16 0° 306° (NW) 3,927 5.9 -4.2°
